SCP
-0 0 0 0 -0 -0 -0 0 0 0 0 0 0 0 0 0 0 0 0 0 -0 0 -0 -1 -1 -1 -0 -0 -0 -0 -0 0 -0 -0 -0 -0 -0 -0 -0 -0 -0 -0 -0
0 0 0 0 0 0 -0 -0 -0 -0 0 0 0 0 0 0 0 0 0 0 0 0 -0 -1 -1 -1 -0 -0 -0 -0 -0 0 0 0 0 0 0 -0 -0 -0 -0 -0 -0
0 0 0 0 0 0 0 0 0 0 -0 -0 0 0 0 -0 0 0 0 0 1 0 1 1 -0 0 0 0 0 -0 -0 -0 0 0 0 0 0 0 0 0 0 0 -0
0 0 0 0 0 0 0 0 0 0 0 -0 0 0 0 0 0 0 0 0 1 1 1 1 1 1 1 0 0 0 0 0 0 0 0 0 0 0 0 0 0 0 0
0 0 0 0 0 0 0 0 0 0 0 0 0 0 0 0 0 0 0 0 1 1 0 0 0 0 0 1 0 0 0 0 0 0 0 0 0 0 0 0 0 0 0
0 0 0 0 0 0 0 0 0 0 0 0 0 0 0 0 0 0 0 1 1 0 0 0 0 0 0 -0 1 1 0 0 0 0 0 0 0 0 0 0 0 0 0
0 0 0 0 0 0 0 0 0 0 0 0 0 -0 -0 0 0 0 0 0 0 0 0 0 0 0 0 0 0 0 0 0 0 0 0 0 0 0 0 0 0 0 0
0 0 0 0 0 0 0 0 0 0 0 0 0 0 0 0 0 0 0 0 0 0 0 0 0 0 0 0 0 1 1 0 0 0 0 0 0 0 0 0 0 0 0
0 0 0 0 0 0 0 0 0 0 0 0 0 0 0 0 0 0 0 0 0 0 0 0 0 0 -0 0 0 1 1 1 0 0 0 0 0 0 0 0 0 0 0
0 0 0 0 0 0 0 0 0 0 0 0 0 0 0 0 0 0 0 0 0 0 0 0 0 0 -0 -0 0 1 1 0 0 0 0 0 0 0 0 0 0 0 0
0 0 0 0 0 0 0 0 0 0 0 0 0 0 0 0 0 0 0 0 -0 0 0 0 0 0 0 1 0 0 0 0 0 0 0 0 0 0 0 0 0 0 0
0 0 0 0 0 0 0 0 0 0 0 0 0 0 0 0 0 0 0 0 0 -0 0 0 0 0 0 0 1 0 0 0 0 0 0 0 0 0 0 0 0 0 0
0 0 0 0 0 0 0 0 0 0 0 0 0 0 0 0 0 0 0 0 0 0 0 0 0 0 0 0 0 0 0 0 0 0 0 0 0 0 0 0 0 0 0
0 0 0 0 0 0 0 0 0 0 0 0 0 0 0 0 0 0 0 0 0 0 0 0 0 0 0 0 0 0 1 0 0 0 0 0 0 0 0 0 0 0 0
0 0 0 0 0 0 0 0 0 0 0 0 0 0 0 0 0 0 0 0 0 0 -0 0 0 0 0 0 0 0 0 0 0 0 0 0 0 0 0 0 0 0 0
0 0 -0 -0 -0 -0 -0 -0 0 -0 0 0 -0 0 0 0 0 0 0 0 0 0 0 0 0 0 0 0 0 0 0 0 0 0 0 0 0 0 0 0 0 0 0
0 0 0 -0 -0 -0 -0 -0 -0 -0 0 0 0 -0 0 -0 -0 -0 0 0 0 0 0 0 0 0 0 0 0 0 0 0 0 0 0 0 0 0 0 0 0 0 0
0 0 0 -0 -0 -0 -0 -0 -0 -0 0 0 0 -0 -0 -0 -0 -0 0 0 0 0 0 0 0 0 0 0 0 0 0 0 0 0 0 0 0 0 0 0 0 0 0
0 0 0 -0 -0 -0 -0 -0 -0 0 0 0 0 -0 -0 -0 -0 -0 0 0 0 0 0 0 0 0 0 0 0 0 0 0 0 0 0 0 0 0 0 0 0 0 0
0 0 0 -0 -0 -0 -0 -0 0 0 0 0 0 -0 -0 -0 -0 -0 0 0 0 0 0 0 0 0 0 0 0 0 0 0 0 0 0 0 0 0 0 0 0 0 0
0 0 -0 0 -0 -0 -0 0 0 0 0 0 0 0 0 -0 -0 -0 0 0 0 0 0 0 0 0 0 0 0 0 0 0 0 0 0 0 0 0 0 0 0 0 0
0 0 0 0 -0 -0 -0 -0 -0 0 0 0 0 0 0 -0 -0 -0 -0 0 0 0 0 0 0 0 0 0 0 0 0 0 0 0 0 0 0 0 0 0 0 0 0
0 0 -0 0 -0 -0 -0 -0 -0 0 0 0 0 0 0 0 0 0 0 0 0 0 0 0 0 0 0 0 0 0 0 0 0 0 0 0 0 0 0 0 0 0 0
0 0 0 -0 -0 -0 -0 -0 -0 0 0 0 0 0 0 0 0 0 0 0 0 0 0 0 0 0 0 0 0 0 0 0 0 0 0 0 0 0 0 0 0 0 0
0 0 0 0 0 0 -0 -0 -0 0 0 0 0 0 0 0 0 0 0 0 0 0 0 0 0 0 0 0 0 0 0 0 0 0 0 0 0 0 0 0 0 0 0
0 0 0 0 0 0 -0 -0 -0 0 0 0 0 0 0 0 0 0 0 -0 -0 0 0 0 0 0 0 0 0 0 0 0 0 0 0 0 0 0 0 0 0 0 0
Wind_Speed_500mb
14 19 23 26 30 32 30 26 24 24 23 27 24 24 27 32 35 34 32 31 30 26 27 26 27 25 25 26 24 24 23 23 20 18 18 18 20 22 25 28 30 31 31
29 26 28 35 41 41 39 36 36 34 31 32 32 27 33 31 33 37 39 33 33 33 31 31 32 31 31 29 28 24 26 26 24 22 22 22 20 21 22 23 25 27 31
32 33 33 33 35 40 42 44 46 46 44 46 44 36 32 34 38 40 37 40 41 42 38 39 39 35 36 33 30 28 26 29 28 26 26 26 26 24 23 23 25 24 23
35 34 35 34 35 35 37 41 45 44 44 49 46 41 39 37 40 47 43 49 50 49 42 43 41 39 35 35 33 33 32 29 30 29 27 31 30 28 27 28 28 28 28
25 26 28 31 31 35 41 43 46 49 50 50 51 51 46 45 43 42 39 40 43 54 51 56 49 44 45 39 38 35 35 36 32 30 29 29 32 32 31 32 32 33 33
28 32 33 32 34 37 41 46 48 47 52 56 56 60 56 54 54 57 59 54 51 55 59 58 40 45 48 55 53 46 41 39 39 32 31 30 30 31 33 35 36 38 39
31 31 37 40 40 42 45 50 53 57 60 68 68 72 71 63 61 60 46 47 56 52 52 56 54 40 57 69 59 65 52 45 42 39 34 34 31 30 32 32 34 34 35
22 26 31 33 37 38 40 44 46 50 47 48 46 53 52 70 67 40 34 30 34 28 29 46 53 60 62 46 64 69 68 56 49 43 41 39 37 34 34 34 34 33 34
19 23 26 28 29 31 31 30 31 34 37 35 27 13 16 18 63 71 71 62 62 49 38 33 34 27 31 34 49 64 73 69 58 50 45 46 43 39 38 37 35 35 32
22 25 27 27 26 26 26 27 27 28 31 36 23 13 21 25 24 50 70 65 62 66 58 48 43 41 58 69 66 62 75 74 73 62 54 49 48 44 42 39 37 37 34
26 28 31 31 29 28 26 25 25 26 27 31 34 36 32 33 30 38 61 73 80 66 66 71 65 62 55 53 65 64 70 73 83 80 66 60 52 47 48 44 42 41 37
29 31 32 35 37 37 38 38 37 37 36 33 34 35 35 28 35 37 57 75 81 92 84 78 77 84 91 87 76 73 79 81 84 89 82 71 56 50 52 51 48 45 42
28 28 29 31 31 32 31 28 31 35 42 44 43 44 42 36 34 38 45 62 70 87 93 90 81 72 76 80 73 80 84 87 88 87 88 85 68 59 53 58 53 49 47
30 31 34 37 36 35 38 33 32 41 48 49 47 44 47 45 45 45 47 53 76 69 92 86 81 74 70 63 72 63 77 89 90 91 89 93 77 65 55 60 58 55 51
29 29 36 43 45 47 45 38 33 43 47 52 53 55 53 51 50 51 51 50 50 64 84 82 85 72 72 71 60 70 73 81 87 91 95 88 81 72 60 57 61 60 54
23 24 33 39 47 51 50 49 39 43 49 54 59 60 60 57 58 56 54 54 52 62 84 92 101 96 87 87 76 76 74 70 74 92 92 88 79 75 67 66 65 61 57
21 20 21 34 45 46 47 41 50 48 53 54 57 60 63 59 60 58 61 62 62 60 79 108 102 98 95 86 83 81 84 82 82 75 96 89 89 82 78 71 67 61 59
18 18 24 36 45 50 48 50 50 54 59 61 59 64 65 63 60 58 60 68 74 76 79 92 109 106 96 88 84 80 84 90 81 84 74 102 111 90 88 76 67 61 62
21 20 27 37 48 50 52 54 57 59 60 62 60 63 64 66 65 63 69 73 80 86 89 93 109 109 101 90 83 71 69 74 95 83 76 87 95 97 94 80 69 66 65
23 25 34 41 46 48 51 53 57 59 59 59 59 57 61 62 66 66 70 72 78 90 94 99 104 111 104 91 80 75 67 65 80 86 85 92 94 100 96 82 71 71 66
26 33 43 48 48 49 51 56 59 60 61 64 63 59 58 56 54 61 70 77 80 94 101 106 111 101 103 88 77 66 74 66 72 81 87 92 95 100 90 79 73 74 66
32 37 51 54 54 50 52 55 55 59 58 62 68 68 62 62 64 70 75 80 73 86 101 104 110 107 107 96 84 70 69 65 75 85 101 92 95 93 96 85 80 70 61
36 41 51 56 56 58 55 61 59 57 59 61 68 70 70 63 67 76 85 90 77 84 86 87 92 89 95 95 83 71 74 74 73 77 78 92 95 101 95 85 71 61 54
38 44 47 52 54 60 62 68 65 59 59 60 67 69 67 66 67 72 86 92 83 90 85 75 69 66 69 73 77 74 56 67 71 71 74 79 85 87 85 79 66 57 54
39 44 48 52 54 57 64 69 68 63 62 64 67 73 70 68 70 71 79 86 86 86 80 70 74 59 55 62 55 67 79 50 82 83 70 68 74 80 79 72 60 56 51
37 41 45 48 49 54 56 64 65 59 65 69 71 81 78 71 69 67 66 78 86 89 84 64 64 59 51 52 51 59 77 55 54 41 76 70 77 77 53 68 57 56 50
Wind_Direction_500mb
251 255 257 264 269 269 270 270 275 288 296 295 290 294 295 291 294 296 284 282 296 298 292 282 278 269 284 279 268 258 253 235 235 235 230 221 221 224 229 227 227 225 233
242 254 264 262 258 260 261 264 272 275 277 277 277 279 277 276 274 295 274 269 286 280 274 272 274 267 275 285 279 265 258 235 236 241 238 231 222 221 221 223 221 218 224
238 253 262 266 265 259 260 264 265 268 271 271 270 262 262 271 282 286 284 273 276 261 269 266 268 277 272 274 282 271 261 248 245 249 246 235 231 225 224 221 224 227 227
254 259 262 263 270 276 272 272 273 273 276 276 275 270 265 261 267 278 286 278 273 263 269 264 270 270 270 275 279 274 268 260 256 261 250 234 232 232 230 230 230 232 231
262 264 264 266 270 275 283 285 285 287 284 279 274 268 261 264 269 272 273 280 271 258 259 253 249 257 262 275 276 273 272 269 264 264 255 234 233 235 236 237 239 239 238
279 282 280 282 286 287 286 284 288 291 292 289 283 276 269 269 271 271 273 274 273 270 273 262 283 291 275 258 263 268 269 269 264 264 259 245 237 237 241 243 243 246 246
280 281 285 291 294 291 292 290 287 286 285 286 290 280 275 278 274 274 283 281 284 281 273 273 258 231 281 261 254 258 263 269 263 260 259 250 244 241 243 246 248 245 247
291 292 290 296 302 302 299 296 295 293 299 301 313 312 307 289 275 273 272 281 304 330 298 281 275 268 276 254 264 254 254 261 263 259 258 254 247 240 246 250 252 250 247
326 325 325 323 321 320 320 319 314 312 315 315 337 346 327 301 295 288 276 276 281 286 300 294 285 262 219 268 276 270 253 253 258 255 255 255 250 246 246 247 251 254 252
352 350 348 346 345 345 341 343 338 330 323 325 327 251 271 285 311 310 293 287 279 276 280 276 274 266 250 270 268 253 264 252 254 254 253 250 248 250 249 247 249 253 254
31 29 24 20 17 16 12 3 359 359 358 346 343 331 313 294 282 284 300 293 286 275 266 268 267 273 273 275 277 269 262 257 255 251 251 246 243 249 251 249 248 251 252
30 27 22 17 15 15 18 22 23 24 25 13 357 351 343 337 310 296 292 294 295 291 291 276 265 265 270 267 267 272 270 263 260 259 246 244 241 247 250 247 247 248 250
21 19 16 14 10 6 5 1 10 15 12 10 5 356 349 337 322 312 301 301 299 296 294 289 285 273 266 268 268 262 266 263 261 263 255 240 239 238 249 247 247 247 249
16 14 15 10 12 6 359 360 10 9 5 0 356 353 350 344 334 326 317 307 306 302 300 298 296 286 274 270 261 262 258 266 264 257 257 238 237 236 246 248 248 247 247
17 12 12 9 9 3 1 358 0 2 360 358 354 354 349 343 336 331 323 312 301 303 302 300 298 294 284 271 262 256 261 264 262 257 251 247 238 234 238 249 250 247 247
12 8 10 5 5 2 359 358 355 355 354 355 354 351 347 341 337 335 329 317 297 291 288 293 294 291 289 282 266 255 259 260 261 254 246 242 247 242 232 243 247 245 246
7 8 9 1 357 358 0 354 348 354 355 350 350 348 348 342 341 336 333 327 316 303 290 299 293 291 285 282 279 262 255 258 259 258 249 247 244 242 232 238 242 241 244
5 3 2 359 356 356 357 354 353 357 353 350 345 344 346 344 339 336 332 327 321 314 301 294 302 297 289 285 279 273 260 253 255 256 242 238 234 235 232 235 239 241 241
9 4 2 3 354 355 353 352 353 352 350 348 343 340 342 343 336 332 325 321 318 315 307 294 295 297 290 284 276 272 272 258 252 254 246 250 236 234 230 229 238 241 237
9 7 6 3 352 352 350 349 347 348 347 344 341 335 341 343 339 326 321 316 311 310 304 295 287 289 288 284 279 266 262 261 251 245 242 241 235 231 228 229 233 236 235
23 21 14 10 359 355 354 349 345 345 345 343 342 338 337 340 330 329 325 319 311 310 306 295 285 279 276 274 268 270 250 256 249 246 247 238 235 224 225 224 231 231 236
24 20 18 14 5 360 355 351 346 346 344 342 342 341 334 338 341 337 332 323 310 315 308 296 285 272 269 265 266 258 249 246 234 240 235 232 225 223 219 221 226 230 235
20 18 16 12 7 4 359 355 352 347 344 345 345 341 338 337 336 338 333 327 318 323 314 308 293 277 274 266 261 249 242 243 239 237 234 228 223 216 218 221 221 229 230
10 9 9 5 1 3 360 358 353 349 345 348 348 344 339 339 336 337 334 333 328 328 325 313 301 290 285 272 261 237 245 241 233 231 227 217 211 218 216 217 224 224 223
0 1 1 357 352 355 358 357 352 349 347 348 349 350 344 339 337 338 337 338 340 336 328 317 311 281 284 270 263 246 235 244 228 223 227 213 218 214 221 216 211 212 210
350 353 352 352 348 345 350 354 353 348 346 346 349 352 349 342 338 336 338 345 342 347 347 340 317 300 274 270 252 243 236 235 237 196 212 218 229 222 206 208 202 206 200
Wind_Speed_850mb
14 19 23 26 30 32 30 26 24 24 23 27 24 24 27 32 35 34 32 31 30 26 27 26 27 25 25 26 24 24 23 23 20 18 18 18 20 22 25 28 30 31 31
29 26 28 35 41 41 39 36 36 34 31 32 32 27 33 31 33 37 39 33 33 33 31 31 32 31 31 29 28 24 26 26 24 22 22 22 20 21 22 23 25 27 31
32 33 33 33 35 40 42 44 46 46 44 46 44 36 32 34 38 40 37 40 41 42 38 39 39 35 36 33 30 28 26 29 28 26 26 26 26 24 23 23 25 24 23
35 34 35 34 35 35 37 41 45 44 44 49 46 41 39 37 40 47 43 49 50 49 42 43 41 39 35 35 33 33 32 29 30 29 27 31 30 28 27 28 28 28 28
25 26 28 31 31 35 41 43 46 49 50 50 51 51 46 45 43 42 39 40 43 54 51 56 49 44 45 39 38 35 35 36 32 30 29 29 32 32 31 32 32 33 33
28 32 33 32 34 37 41 46 48 47 52 56 56 60 56 54 54 57 59 54 51 55 59 58 40 45 48 55 53 46 41 39 39 32 31 30 30 31 33 35 36 38 39
31 31 37 40 40 42 45 50 53 57 60 68 68 72 71 63 61 60 46 47 56 52 52 56 54 40 57 69 59 65 52 45 42 39 34 34 31 30 32 32 34 34 35
22 26 31 33 37 38 40 44 46 50 47 48 46 53 52 70 67 40 34 30 34 28 29 46 53 60 62 46 64 69 68 56 49 43 41 39 37 34 34 34 34 33 34
19 23 26 28 29 31 31 30 31 34 37 35 27 13 16 18 63 71 71 62 62 49 38 33 34 27 31 34 49 64 73 69 58 50 45 46 43 39 38 37 35 35 32
22 25 27 27 26 26 26 27 27 28 31 36 23 13 21 25 24 50 70 65 62 66 58 48 43 41 58 69 66 62 75 74 73 62 54 49 48 44 42 39 37 37 34
26 28 31 31 29 28 26 25 25 26 27 31 34 36 32 33 30 38 61 73 80 66 66 71 65 62 55 53 65 64 70 73 83 80 66 60 52 47 48 44 42 41 37
29 31 32 35 37 37 38 38 37 37 36 33 34 35 35 28 35 37 57 75 81 92 84 78 77 84 91 87 76 73 79 81 84 89 82 71 56 50 52 51 48 45 42
28 28 29 31 31 32 31 28 31 35 42 44 43 44 42 36 34 38 45 62 70 87 93 90 81 72 76 80 73 80 84 87 88 87 88 85 68 59 53 58 53 49 47
30 31 34 37 36 35 38 33 32 41 48 49 47 44 47 45 45 45 47 53 76 69 92 86 81 74 70 63 72 63 77 89 90 91 89 93 77 65 55 60 58 55 51
29 29 36 43 45 47 45 38 33 43 47 52 53 55 53 51 50 51 51 50 50 64 84 82 85 72 72 71 60 70 73 81 87 91 95 88 81 72 60 57 61 60 54
23 24 33 39 47 51 50 49 39 43 49 54 59 60 60 57 58 56 54 54 52 62 84 92 101 96 87 87 76 76 74 70 74 92 92 88 79 75 67 66 65 61 57
21 20 21 34 45 46 47 41 50 48 53 54 57 60 63 59 60 58 61 62 62 60 79 108 102 98 95 86 83 81 84 82 82 75 96 89 89 82 78 71 67 61 59
18 18 24 36 45 50 48 50 50 54 59 61 59 64 65 63 60 58 60 68 74 76 79 92 109 106 96 88 84 80 84 90 81 84 74 102 111 90 88 76 67 61 62
21 20 27 37 48 50 52 54 57 59 60 62 60 63 64 66 65 63 69 73 80 86 89 93 109 109 101 90 83 71 69 74 95 83 76 87 95 97 94 80 69 66 65
23 25 34 41 46 48 51 53 57 59 59 59 59 57 61 62 66 66 70 72 78 90 94 99 104 111 104 91 80 75 67 65 80 86 85 92 94 100 96 82 71 71 66
26 33 43 48 48 49 51 56 59 60 61 64 63 59 58 56 54 61 70 77 80 94 101 106 111 101 103 88 77 66 74 66 72 81 87 92 95 100 90 79 73 74 66
32 37 51 54 54 50 52 55 55 59 58 62 68 68 62 62 64 70 75 80 73 86 101 104 110 107 107 96 84 70 69 65 75 85 101 92 95 93 96 85 80 70 61
36 41 51 56 56 58 55 61 59 57 59 61 68 70 70 63 67 76 85 90 77 84 86 87 92 89 95 95 83 71 74 74 73 77 78 92 95 101 95 85 71 61 54
38 44 47 52 54 60 62 68 65 59 59 60 67 69 67 66 67 72 86 92 83 90 85 75 69 66 69 73 77 74 56 67 71 71 74 79 85 87 85 79 66 57 54
39 44 48 52 54 57 64 69 68 63 62 64 67 73 70 68 70 71 79 86 86 86 80 70 74 59 55 62 55 67 79 50 82 83 70 68 74 80 79 72 60 56 51
37 41 45 48 49 54 56 64 65 59 65 69 71 81 78 71 69 67 66 78 86 89 84 64 64 59 51 52 51 59 77 55 54 41 76 70 77 77 53 68 57 56 50
Wind_Direction_850mb
251 255 257 264 269 269 270 270 275 288 296 295 290 294 295 291 294 296 284 282 296 298 292 282 278 269 284 279 268 258 253 235 235 235 230 221 221 224 229 227 227 225 233
242 254 264 262 258 260 261 264 272 275 277 277 277 279 277 276 274 295 274 269 286 280 274 272 274 267 275 285 279 265 258 235 236 241 238 231 222 221 221 223 221 218 224
238 253 262 266 265 259 260 264 265 268 271 271 270 262 262 271 282 286 284 273 276 261 269 266 268 277 272 274 282 271 261 248 245 249 246 235 231 225 224 221 224 227 227
254 259 262 263 270 276 272 272 273 273 276 276 275 270 265 261 267 278 286 278 273 263 269 264 270 270 270 275 279 274 268 260 256 261 250 234 232 232 230 230 230 232 231
262 264 264 266 270 275 283 285 285 287 284 279 274 268 261 264 269 272 273 280 271 258 259 253 249 257 262 275 276 273 272 269 264 264 255 234 233 235 236 237 239 239 238
279 282 280 282 286 287 286 284 288 291 292 289 283 276 269 269 271 271 273 274 273 270 273 262 283 291 275 258 263 268 269 269 264 264 259 245 237 237 241 243 243 246 246
280 281 285 291 294 291 292 290 287 286 285 286 290 280 275 278 274 274 283 281 284 281 273 273 258 231 281 261 254 258 263 269 263 260 259 250 244 241 243 246 248 245 247
291 292 290 296 302 302 299 296 295 293 299 301 313 312 307 289 275 273 272 281 304 330 298 281 275 268 276 254 264 254 254 261 263 259 258 254 247 240 246 250 252 250 247
326 325 325 323 321 320 320 319 314 312 315 315 337 346 327 301 295 288 276 276 281 286 300 294 285 262 219 268 276 270 253 253 258 255 255 255 250 246 246 247 251 254 252
352 350 348 346 345 345 341 343 338 330 323 325 327 251 271 285 311 310 293 287 279 276 280 276 274 266 250 270 268 253 264 252 254 254 253 250 248 250 249 247 249 253 254
31 29 24 20 17 16 12 3 359 359 358 346 343 331 313 294 282 284 300 293 286 275 266 268 267 273 273 275 277 269 262 257 255 251 251 246 243 249 251 249 248 251 252
30 27 22 17 15 15 18 22 23 24 25 13 357 351 343 337 310 296 292 294 295 291 291 276 265 265 270 267 267 272 270 263 260 259 246 244 241 247 250 247 247 248 250
21 19 16 14 10 6 5 1 10 15 12 10 5 356 349 337 322 312 301 301 299 296 294 289 285 273 266 268 268 262 266 263 261 263 255 240 239 238 249 247 247 247 249
16 14 15 10 12 6 359 360 10 9 5 0 356 353 350 344 334 326 317 307 306 302 300 298 296 286 274 270 261 262 258 266 264 257 257 238 237 236 246 248 248 247 247
17 12 12 9 9 3 1 358 0 2 360 358 354 354 349 343 336 331 323 312 301 303 302 300 298 294 284 271 262 256 261 264 262 257 251 247 238 234 238 249 250 247 247
12 8 10 5 5 2 359 358 355 355 354 355 354 351 347 341 337 335 329 317 297 291 288 293 294 291 289 282 266 255 259 260 261 254 246 242 247 242 232 243 247 245 246
7 8 9 1 357 358 0 354 348 354 355 350 350 348 348 342 341 336 333 327 316 303 290 299 293 291 285 282 279 262 255 258 259 258 249 247 244 242 232 238 242 241 244
5 3 2 359 356 356 357 354 353 357 353 350 345 344 346 344 339 336 332 327 321 314 301 294 302 297 289 285 279 273 260 253 255 256 242 238 234 235 232 235 239 241 241
9 4 2 3 354 355 353 352 353 352 350 348 343 340 342 343 336 332 325 321 318 315 307 294 295 297 290 284 276 272 272 258 252 254 246 250 236 234 230 229 238 241 237
9 7 6 3 352 352 350 349 347 348 347 344 341 335 341 343 339 326 321 316 311 310 304 295 287 289 288 284 279 266 262 261 251 245 242 241 235 231 228 229 233 236 235
23 21 14 10 359 355 354 349 345 345 345 343 342 338 337 340 330 329 325 319 311 310 306 295 285 279 276 274 268 270 250 256 249 246 247 238 235 224 225 224 231 231 236
24 20 18 14 5 360 355 351 346 346 344 342 342 341 334 338 341 337 332 323 310 315 308 296 285 272 269 265 266 258 249 246 234 240 235 232 225 223 219 221 226 230 235
20 18 16 12 7 4 359 355 352 347 344 345 345 341 338 337 336 338 333 327 318 323 314 308 293 277 274 266 261 249 242 243 239 237 234 228 223 216 218 221 221 229 230
10 9 9 5 1 3 360 358 353 349 345 348 348 344 339 339 336 337 334 333 328 328 325 313 301 290 285 272 261 237 245 241 233 231 227 217 211 218 216 217 224 224 223
0 1 1 357 352 355 358 357 352 349 347 348 349 350 344 339 337 338 337 338 340 336 328 317 311 281 284 270 263 246 235 244 228 223 227 213 218 214 221 216 211 212 210
350 353 352 352 348 345 350 354 353 348 346 346 349 352 349 342 338 336 338 345 342 347 347 340 317 300 274 270 252 243 236 235 237 196 212 218 229 222 206 208 202 206 200